Flag for Canada Weather past 2 weeks in Prince Albert, Saskatchewan, Canada

Now
0 °F

Partly sunny.


Feels Like: -21 °F
Forecast: -11 / 1 °F
Wind: 17 mph from Northwest

Location: Prince Albert

Current Time: Mar 3, 2015 at 1:03:01 PM

Latest Report: Mar 3, 2015 at 12:00 PM


Visibility: 15 mi

Pressure: 30.13 "Hg

Humidity: 54%

Dew point: -13 °F

Location of Prince AlbertLocation

Historic Weather in Prince Albert — Graph

°F

Prince Albert temperature yesterday

Maximum temperature yesterday: 18 °F (at 1:00 PM)
Minimum temperature yesterday: -6 °F (at 2:00 AM)
Average temperature yesterday: 6 °F

Past Weeks' High & Low Weather Summary

 TemperatureHumidityPressure
High36 °F (Feb 23, 1:00 PM)100% (Mar 1, 1:00 AM)30.84 "Hg (Mar 1, 1:00 AM)
Low-38 °F (Feb 22, 7:00 AM)44% (Feb 20, 5:00 PM)29.84 "Hg (Mar 2, 10:00 AM)
Average1 °F71%30.30 "Hg
* Reported Feb 16 12:00 Noon — Mar 3 12:00 Noon, Prince Albert, Weather by CustomWeather, © 2015

Note: Actual official high and low records may vary slightly from our data, if they occured in-between our weather recording intervals... More about our weather records

Advertising

Prince Albert weather history for previous 24 hours

 ConditionsComfort  
Time TempWeatherWind HumidityBarometerVisibility
12:00 PM
Tue, Mar 3
0 °FPartly sunny.17 mph54%30.13 "Hg15 mi
11:00 AM-2 °FBroken clouds.17 mph59%30.13 "Hg15 mi
10:00 AM-4 °FPassing clouds.16 mph65%30.14 "Hg15 mi
9:00 AM-6 °FPassing clouds.14 mph64%30.16 "Hg15 mi
8:00 AM-9 °FPassing clouds.16 mph70%30.17 "Hg15 mi
7:00 AM-9 °FPassing clouds.8 mph70%30.19 "Hg15 mi
6:00 AM-9 °FLight snow. Passing clouds.10 mph70%30.21 "Hg15 mi
5:00 AM-9 °FLight snow. Passing clouds.12 mph70%30.20 "Hg15 mi
4:00 AM-8 °FLight snow. Passing clouds.10 mph64%30.21 "Hg15 mi
3:00 AM-6 °FLight snow. Passing clouds.14 mph64%30.20 "Hg15 mi
2:00 AM-4 °FPassing clouds.17 mph59%30.18 "Hg15 mi
1:00 AM-2 °FPassing clouds.15 mph59%30.17 "Hg15 mi
12:00 AM0 °FPassing clouds.15 mph60%30.16 "Hg15 mi
11:00 PM
Mon, Mar 2
0 °FLow level haze.15 mph60%30.15 "Hg15 mi
10:00 PM1 °FPassing clouds.15 mph55%30.15 "Hg15 mi
9:00 PM3 °FPartly cloudy.16 mph55%30.15 "Hg15 mi
8:00 PM3 °FPartly cloudy.13 mph60%30.13 "Hg15 mi
7:00 PM7 °FPartly cloudy.18 mph61%30.08 "Hg15 mi
6:00 PM9 °FBroken clouds.21 mph61%30.05 "Hg15 mi
5:00 PM12 °FPartly sunny.25 mph62%30.02 "Hg15 mi
4:00 PM14 °FBroken clouds.26 mph62%29.99 "Hg15 mi
3:00 PM16 °FLight snow. Overcast.28 mph67%29.94 "Hg4 mi
2:00 PM18 °FLight snow. Overcast.24 mph68%29.92 "Hg6 mi
1:00 PM18 °FLight snow. Mostly cloudy.23 mph73%29.89 "Hg2 mi
Weather by CustomWeather, © 2015

See weather overviewHow to use our weather pages